Change the Weather History Date:

Wednesday, October 31, 2012

  Actual Average Record
Temperature  
Mean Temperature 37 °F -  
Max Temperature 38 °F 52 °F 75 °F (1950)
Min Temperature 36 °F 32 °F 18 °F (1983)
Degree Days  
Heating Degree Days 28    
Moisture  
Dew Point 35 °F    
Average Humidity 89    
Maximum Humidity 91    
Minimum Humidity 86    
Precipitation  
Precipitation 0.00 in - - ()
Sea Level Pressure  
Sea Level Pressure 29.63 in    
Wind  
Wind Speed 12 mph (NNW)    
Max Wind Speed 20 mph    
Max Gust Speed 30 mph    
Visibility 5 miles    
Events Rain , Snow    
Averages and records for this station are not official NWS values.
T = Trace of Precipitation, MM = Missing Value Source: NWS Daily Summary

Daily Weather History Graph

Daily Weather History Graph

Search for Another Location

Airport or City:

Trip Planner

Search our weather history database for the weather conditions in past years. The results will help you decide how hot, cold, wet, or windy it might be!

Date:

Astronomy

Oct. 31, 2012 Rise Set
Actual Time 8:17 AM EDT 6:31 PM EDT
Civil Twilight 7:47 AM EDT 7:02 PM EDT
Nautical Twilight 7:13 AM EDT 7:36 PM EDT
Astronomical Twilight 6:39 AM EDT 8:09 PM EDT
Moon 7:38 PM EDT 10:02 AM EDT
Length of Visible Light 11h 14m
Length of Day
10h 13m
Full, 97% of the Moon is Illuminated
Oct 31
Full
Nov 6
Last Quarter
Nov 13
New
Nov 20
First Quarter
Nov 28
Full

Hourly Weather History & Observations

Time (EDT) Temp. Windchill Dew Point Humidity Pressure Visibility Wind Dir Wind Speed Gust Speed Precip Events Conditions
12:14 AM 36.1 °F 27.3 °F 32.2 °F 86% 29.63 in 10.0 mi North 13.8 mph 21.9 mph N/A   Overcast
12:34 AM 36.1 °F 27.7 °F 32.2 °F 86% 29.62 in 10.0 mi NNW 12.7 mph 19.6 mph N/A   Overcast
12:54 AM 36.1 °F 26.9 °F 32.2 °F 86% 29.62 in 10.0 mi NNW 15.0 mph 24.2 mph N/A   Overcast
1:14 AM 36.1 °F 27.7 °F 32.4 °F 86% 29.62 in 10.0 mi North 12.7 mph 21.9 mph N/A   Overcast
1:34 AM 36.1 °F 27.3 °F 32.9 °F 88% 29.61 in 7.0 mi North 13.8 mph 19.6 mph N/A   Overcast
1:54 AM 36.1 °F 28.2 °F 32.9 °F 88% 29.61 in 7.0 mi North 11.5 mph 19.6 mph N/A Rain Light Rain
2:14 AM 36.1 °F 29.3 °F 32.9 °F 88% 29.61 in 7.0 mi NNW 9.2 mph 24.2 mph N/A   Overcast
2:34 AM 36.1 °F 28.2 °F 33.1 °F 89% 29.61 in 5.0 mi NNW 11.5 mph 25.3 mph N/A   Light Drizzle
2:53 AM 36.1 °F 28.7 °F 33.3 °F 89% 29.61 in 10.0 mi NNW 10.4 mph 18.4 mph N/A   Overcast
3:14 AM 36.1 °F 28.7 °F 33.3 °F 89% 29.60 in 10.0 mi NNW 10.4 mph 16.1 mph N/A   Overcast
3:35 AM 36.1 °F 29.3 °F 33.3 °F 89% 29.60 in 7.0 mi North 9.2 mph - N/A   Overcast
4:56 AM 36.1 °F 29.9 °F 33.4 °F 90% 29.60 in 4.0 mi NNW 8.1 mph 18.4 mph N/A Rain Light Rain
5:14 AM 36.1 °F 29.9 °F 33.4 °F 90% 29.60 in 2.5 mi NNW 8.1 mph - N/A Snow Light Snow
5:34 AM 36.1 °F 29.9 °F 33.8 °F 91% 29.60 in 1.8 mi NNW 8.1 mph - N/A Rain Light Rain
5:53 AM 36.1 °F 30.6 °F 33.8 °F 91% 29.61 in 1.8 mi NNW 6.9 mph - N/A Snow Light Snow
6:14 AM 36.1 °F 31.4 °F 33.8 °F 91% 29.60 in 2.0 mi NNW 5.8 mph - N/A Rain Light Rain
6:34 AM 36.1 °F 29.9 °F 33.8 °F 91% 29.60 in 2.0 mi NNW 8.1 mph 16.1 mph N/A Rain Light Rain
6:54 AM 36.1 °F 28.7 °F 33.8 °F 91% 29.60 in 1.8 mi NNW 10.4 mph - N/A Rain Light Rain
7:14 AM 36.1 °F 28.7 °F 33.8 °F 91% 29.61 in 2.0 mi NNW 10.4 mph 16.1 mph N/A Rain Light Rain
7:34 AM 36.1 °F 29.3 °F 33.8 °F 91% 29.61 in 2.0 mi NNW 9.2 mph 19.6 mph N/A Rain Light Rain
7:54 AM 36.1 °F 27.3 °F 33.8 °F 91% 29.61 in 2.0 mi NNW 13.8 mph 18.4 mph N/A Rain Light Rain
8:14 AM 36.1 °F 27.7 °F 33.8 °F 91% 29.61 in 2.5 mi NNW 12.7 mph 21.9 mph N/A Rain Light Rain
8:34 AM 36.1 °F 29.3 °F 33.8 °F 91% 29.61 in 3.0 mi NNW 9.2 mph 18.4 mph N/A Rain Light Rain
8:54 AM 36.1 °F 27.7 °F 33.4 °F 90% 29.61 in 5.0 mi NNW 12.7 mph 18.4 mph N/A   Overcast
9:14 AM 36.1 °F 28.7 °F 33.4 °F 90% 29.61 in 2.0 mi NW 10.4 mph 19.6 mph N/A   Overcast
9:34 AM 36.1 °F 27.7 °F 33.4 °F 90% 29.62 in 2.0 mi NNW 12.7 mph 18.4 mph N/A   Overcast
9:54 AM 36.1 °F 28.7 °F 33.4 °F 90% 29.62 in 2.0 mi NNW 10.4 mph - N/A Rain Light Rain
10:14 AM 37.2 °F 29.6 °F 34.5 °F 90% 29.62 in 1.8 mi NNW 11.5 mph 18.4 mph N/A Rain Light Rain
10:34 AM 37.4 °F 29.8 °F 34.7 °F 90% 29.61 in 2.0 mi NNW 11.5 mph 16.1 mph N/A Rain Light Rain
10:54 AM 38.1 °F 30.7 °F 35.4 °F 90% 29.61 in 4.0 mi NNW 11.5 mph 20.7 mph N/A Rain Light Rain
11:14 AM 37.8 °F 28.3 °F 35.1 °F 90% 29.61 in 4.0 mi NNW 17.3 mph 24.2 mph N/A   Drizzle
11:34 AM 37.9 °F 30.0 °F 35.2 °F 90% 29.61 in 3.0 mi NNW 12.7 mph 18.4 mph N/A Rain Light Rain
11:54 AM 38.7 °F 30.1 °F 36.0 °F 90% 29.61 in 4.0 mi NNW 15.0 mph 24.2 mph N/A Rain Light Rain
12:19 PM 38.7 °F 30.5 °F 35.6 °F 89% 29.61 in 7.0 mi NNW 13.8 mph 25.3 mph N/A   Overcast
12:34 PM 38.7 °F 30.9 °F 35.6 °F 89% 29.62 in 10.0 mi NNW 12.7 mph 19.6 mph N/A   Overcast
12:54 PM 38.7 °F 30.5 °F 35.2 °F 87% 29.61 in 10.0 mi NNW 13.8 mph 27.6 mph N/A   Overcast
1:14 PM 38.7 °F 28.8 °F 35.2 °F 87% 29.61 in 10.0 mi NNW 19.6 mph 28.8 mph N/A   Overcast
1:34 PM 38.7 °F 29.8 °F 35.2 °F 87% 29.61 in 10.0 mi NNW 16.1 mph 29.9 mph N/A   Overcast
1:54 PM 38.7 °F 29.8 °F 35.6 °F 89% 29.61 in 5.0 mi NNW 16.1 mph 20.7 mph N/A   Overcast
2:19 PM 38.7 °F 29.8 °F 35.2 °F 87% 29.62 in 10.0 mi NNW 16.1 mph 23.0 mph N/A   Overcast
2:34 PM 38.7 °F 29.5 °F 35.1 °F 87% 29.62 in 7.0 mi NNW 17.3 mph 25.3 mph N/A   Overcast
3:14 PM 38.7 °F 30.9 °F 35.6 °F 89% 29.62 in 3.0 mi NW 12.7 mph 23.0 mph N/A Rain Light Rain
3:34 PM 38.7 °F 29.1 °F 35.6 °F 89% 29.62 in 5.0 mi NW 18.4 mph 23.0 mph N/A   Overcast
3:54 PM 38.7 °F 30.1 °F 35.4 °F 88% 29.62 in 10.0 mi NNW 15.0 mph 20.7 mph N/A   Overcast
4:14 PM 38.7 °F 30.1 °F 35.1 °F 87% 29.63 in 5.0 mi NNW 15.0 mph 23.0 mph N/A   Drizzle
4:34 PM 38.7 °F 30.1 °F 35.4 °F 88% 29.64 in 2.5 mi NW 15.0 mph 20.7 mph N/A   Heavy Drizzle
4:54 PM 38.7 °F 31.4 °F 35.6 °F 89% 29.64 in 4.0 mi NNW 11.5 mph 17.3 mph N/A   Drizzle
5:14 PM 38.7 °F 30.9 °F 35.6 °F 89% 29.64 in 4.0 mi NNW 12.7 mph 19.6 mph N/A   Drizzle
5:34 PM 38.7 °F 30.1 °F 35.6 °F 89% 29.64 in 4.0 mi NNW 15.0 mph 21.9 mph N/A Rain Rain
5:54 PM 38.7 °F 31.4 °F 35.8 °F 89% 29.65 in 1.5 mi NNW 11.5 mph 21.9 mph N/A Rain Light Rain
6:14 PM 38.7 °F 31.8 °F 36.0 °F 90% 29.65 in 1.5 mi NW 10.4 mph - N/A Rain Heavy Rain
6:34 PM 38.7 °F 31.8 °F 36.0 °F 90% 29.65 in 2.5 mi NW 10.4 mph 18.4 mph N/A   Drizzle
6:54 PM 38.7 °F 31.4 °F 36.0 °F 90% 29.66 in 2.5 mi NW 11.5 mph 21.9 mph N/A Rain Light Rain
7:14 PM 38.7 °F 30.9 °F 36.0 °F 90% 29.66 in 2.5 mi NNW 12.7 mph 18.4 mph N/A Snow Light Snow
7:34 PM 38.7 °F 33.6 °F 36.0 °F 90% 29.66 in 2.0 mi NW 6.9 mph - N/A Snow Heavy Snow
7:54 PM 38.7 °F 30.9 °F 36.0 °F 90% 29.67 in 2.5 mi NW 12.7 mph 17.3 mph N/A Rain Rain
8:14 PM 38.7 °F 31.4 °F 36.0 °F 90% 29.67 in 3.0 mi NW 11.5 mph 17.3 mph N/A Rain Light Rain
8:34 PM 38.3 °F 29.3 °F 35.6 °F 90% 29.67 in 3.0 mi NW 16.1 mph 23.0 mph N/A Rain Light Rain
8:54 PM 38.1 °F 30.2 °F 35.4 °F 90% 29.67 in 3.0 mi NW 12.7 mph 21.9 mph N/A Rain Light Rain
9:14 PM 38.7 °F 30.9 °F 36.0 °F 90% 29.67 in 4.0 mi NW 12.7 mph 21.9 mph N/A Rain Light Rain
9:34 PM 38.7 °F 30.1 °F 36.0 °F 90% 29.67 in 4.0 mi NW 15.0 mph 21.9 mph N/A Rain Light Rain
9:54 PM 38.7 °F 30.9 °F 35.8 °F 89% 29.67 in 4.0 mi NW 12.7 mph 24.2 mph N/A Rain Light Rain
10:14 PM 38.7 °F 30.1 °F 35.8 °F 89% 29.68 in 5.0 mi NW 15.0 mph 20.7 mph N/A Rain Light Rain
10:34 PM 38.7 °F 30.5 °F 35.6 °F 89% 29.68 in 4.0 mi NW 13.8 mph 18.4 mph N/A Rain Light Rain
11:14 PM 38.7 °F 30.5 °F 35.8 °F 89% 29.67 in 4.0 mi NW 13.8 mph 21.9 mph N/A Rain Light Rain
11:34 PM 37.8 °F 29.4 °F 34.9 °F 89% 29.67 in 4.0 mi NW 13.8 mph 19.6 mph N/A Rain Light Rain